User: anonymous   Login
Location: Unspecified
(0.0000°N, 0.0000°E)
Time: 01:36:33
(UTC+01:00)
Language:

Cosmos 2251 - Orbit

View from above orbital plane
View from above orbital plane
View from above satellite
View from above satellite

Ground track
Ground track

The orbit data is extracted from the following two-line orbital elements,

1 22675U 93036A   14326.86999431  .00000139  00000-0  60657-4 0  4095
2 22675 074.0389 126.5932 0023978 114.1484 351.7006 14.32366106119820
Epoch (UTC): 22 November 2014 20:52:47
Eccentricity: 0.0023978
inclination: 74.0389°
perigee height: 766 km
apogee height: 801 km
right ascension of ascending node: 126.5932°
argument of perigee: 114.1484°
revolutions per day: 14.32366106
mean anomaly at epoch: 351.7006°
orbit number at epoch: 11982

The dashed part of the orbit path shows where the satellite is in the earth's shadow,  

DLR